Time,TemperatureF,DewpointF,PressureIn,WindDirection,WindDirectionDegrees,WindSpeedMPH,WindSpeedGustMPH,Humidity,HourlyPrecipIn,Conditions,Clouds,dailyrainin,SolarRadiationWatts/m^2,SoftwareType,DateUTC
2013-03-22 00:02:00,34.0,-2.0,-100.00,NW,318,7.0,14.0,21,0.00,,,0.00,0.000000,,2013-03-22 06:02:00,
2013-03-22 00:32:00,33.0,-4.0,-100.00,NW,323,6.0,11.0,20,0.00,,,0.00,0.000000,,2013-03-22 06:32:00,
2013-03-22 00:43:00,33.0,-4.0,-100.00,NW,323,6.0,11.0,20,0.00,,,0.00,0.000000,,2013-03-22 06:43:00,
2013-03-22 00:52:00,33.0,-4.0,-100.00,NW,323,6.0,11.0,20,0.00,,,0.00,0.000000,,2013-03-22 06:52:00,
2013-03-22 01:02:00,33.0,-4.0,-100.00,NW,323,6.0,11.0,20,0.00,,,0.00,0.000000,,2013-03-22 07:02:00,
2013-03-22 01:11:00,33.0,-4.0,-100.00,NW,323,6.0,11.0,20,0.00,,,0.00,0.000000,,2013-03-22 07:11:00,
2013-03-22 01:12:00,33.0,-2.0,-100.00,NNW,331,6.0,12.0,22,0.00,,,0.00,0.000000,,2013-03-22 07:12:00,
2013-03-22 01:42:00,33.0,-2.0,-100.00,NNW,331,6.0,12.0,22,0.00,,,0.00,0.000000,,2013-03-22 07:42:00,
2013-03-22 01:52:00,33.0,-2.0,-100.00,NNW,331,6.0,12.0,22,0.00,,,0.00,0.000000,,2013-03-22 07:52:00,
2013-03-22 02:02:00,33.0,-2.0,-100.00,NNW,331,6.0,12.0,22,0.00,,,0.00,0.000000,,2013-03-22 08:02:00,
2013-03-22 02:32:00,32.0,-2.0,-100.00,SSW,197,4.0,10.0,23,0.00,,,0.00,0.000000,,2013-03-22 08:32:00,
2013-03-22 02:42:00,32.0,-2.0,-100.00,SSW,197,4.0,10.0,23,0.00,,,0.00,0.000000,,2013-03-22 08:42:00,
2013-03-22 02:52:00,32.0,-2.0,-100.00,SSW,197,4.0,10.0,23,0.00,,,0.00,0.000000,,2013-03-22 08:52:00,
2013-03-22 03:02:00,32.0,-2.0,-100.00,SSW,197,4.0,10.0,23,0.00,,,0.00,0.000000,,2013-03-22 09:02:00,
2013-03-22 03:11:00,32.0,-2.0,-100.00,SSW,197,4.0,10.0,23,0.00,,,0.00,0.000000,,2013-03-22 09:11:00,
2013-03-22 03:12:00,31.0,0.0,-100.00,SSW,212,7.0,10.0,26,0.00,,,0.00,0.000000,,2013-03-22 09:12:00,
2013-03-22 03:42:00,31.0,0.0,-100.00,SSW,212,7.0,10.0,26,0.00,,,0.00,0.000000,,2013-03-22 09:42:00,
2013-03-22 03:53:00,31.0,0.0,-100.00,SSW,212,7.0,10.0,26,0.00,,,0.00,0.000000,,2013-03-22 09:53:00,
2013-03-22 04:03:00,31.0,0.0,-100.00,SSW,212,7.0,10.0,26,0.00,,,0.00,0.000000,,2013-03-22 10:03:00,
2013-03-22 04:12:00,29.0,1.0,-100.00,SW,228,6.0,11.0,29,0.00,,,0.00,0.000000,,2013-03-22 10:12:00,
2013-03-22 04:33:00,29.0,1.0,-100.00,SW,228,6.0,11.0,29,0.00,,,0.00,0.000000,,2013-03-22 10:33:00,
2013-03-22 04:42:00,29.0,1.0,-100.00,SW,228,6.0,11.0,29,0.00,,,0.00,0.000000,,2013-03-22 10:42:00,
2013-03-22 04:52:00,29.0,1.0,-100.00,SW,228,6.0,11.0,29,0.00,,,0.00,0.000000,,2013-03-22 10:52:00,
2013-03-22 05:02:00,29.0,1.0,-100.00,SW,228,6.0,11.0,29,0.00,,,0.00,0.000000,,2013-03-22 11:02:00,
2013-03-22 05:33:00,28.0,-6.0,-100.00,West,273,8.0,14.0,22,-99.99,,,0.00,0.000000,,2013-03-22 11:33:00,
2013-03-22 06:42:00,28.0,-8.0,-100.00,WNW,295,8.0,15.0,20,0.00,,,0.00,0.000000,,2013-03-22 12:42:00,
2013-03-22 06:52:00,28.0,-8.0,-100.00,WNW,295,8.0,15.0,20,0.00,,,0.00,0.000000,,2013-03-22 12:52:00,
2013-03-22 07:42:00,26.0,-7.0,-100.00,WNW,286,6.0,11.0,23,0.00,,,0.00,1.000000,,2013-03-22 13:42:00,
2013-03-22 07:52:00,26.0,-7.0,-100.00,WNW,286,6.0,11.0,23,0.00,,,0.00,1.000000,,2013-03-22 13:52:00,
2013-03-22 08:02:00,26.0,-7.0,-100.00,WNW,286,6.0,11.0,23,0.00,,,0.00,1.000000,,2013-03-22 14:02:00,
2013-03-22 08:43:00,28.0,-4.0,-100.00,WNW,293,7.0,11.0,24,0.00,,,0.00,71.000000,,2013-03-22 14:43:00,
2013-03-22 08:52:00,28.0,-4.0,-100.00,WNW,293,7.0,11.0,24,0.00,,,0.00,71.000000,,2013-03-22 14:52:00,
2013-03-22 09:02:00,28.0,-4.0,-100.00,WNW,293,7.0,11.0,24,0.00,,,0.00,71.000000,,2013-03-22 15:02:00,
2013-03-22 09:12:00,32.0,1.0,-100.00,SSW,199,4.0,10.0,26,0.00,,,0.00,234.000000,,2013-03-22 15:12:00,
2013-03-22 09:43:00,32.0,1.0,-100.00,SSW,199,4.0,10.0,26,0.00,,,0.00,234.000000,,2013-03-22 15:43:00,
2013-03-22 09:52:00,32.0,1.0,-100.00,SSW,199,4.0,10.0,26,0.00,,,0.00,234.000000,,2013-03-22 15:52:00,
2013-03-22 10:02:00,32.0,1.0,-100.00,SSW,199,4.0,10.0,26,0.00,,,0.00,234.000000,,2013-03-22 16:02:00,
2013-03-22 10:12:00,36.0,2.0,-100.00,WSW,256,2.0,9.0,23,0.00,,,0.00,365.000000,,2013-03-22 16:12:00,
2013-03-22 10:42:00,36.0,2.0,-100.00,WSW,256,2.0,9.0,23,0.00,,,0.00,365.000000,,2013-03-22 16:42:00,
2013-03-22 10:52:00,36.0,2.0,-100.00,WSW,256,2.0,9.0,23,0.00,,,0.00,365.000000,,2013-03-22 16:52:00,
2013-03-22 11:02:00,36.0,2.0,-100.00,WSW,256,2.0,9.0,23,0.00,,,0.00,365.000000,,2013-03-22 17:02:00,
2013-03-22 11:42:00,37.0,11.0,-100.00,West,259,5.0,10.0,33,0.00,,,0.00,477.000000,,2013-03-22 17:42:00,
2013-03-22 11:53:00,37.0,11.0,-100.00,West,259,5.0,10.0,33,0.00,,,0.00,477.000000,,2013-03-22 17:53:00,
2013-03-22 12:02:00,37.0,11.0,-100.00,West,259,5.0,10.0,33,0.00,,,0.00,477.000000,,2013-03-22 18:02:00,
2013-03-22 12:11:00,37.0,11.0,-100.00,West,259,5.0,10.0,33,0.00,,,0.00,477.000000,,2013-03-22 18:11:00,
2013-03-22 12:12:00,40.0,11.0,-100.00,SW,232,7.0,14.0,30,0.00,,,0.00,570.000000,,2013-03-22 18:12:00,
2013-03-22 12:42:00,40.0,11.0,-100.00,SW,232,7.0,14.0,30,0.00,,,0.00,570.000000,,2013-03-22 18:42:00,
2013-03-22 12:52:00,40.0,11.0,-100.00,SW,232,7.0,14.0,30,0.00,,,0.00,570.000000,,2013-03-22 18:52:00,
2013-03-22 13:02:00,40.0,11.0,-100.00,SW,232,7.0,14.0,30,0.00,,,0.00,570.000000,,2013-03-22 19:02:00,
2013-03-22 13:12:00,42.0,7.0,-100.00,SW,217,9.0,20.0,23,0.00,,,0.00,718.000000,,2013-03-22 19:12:00,
2013-03-22 13:43:00,42.0,7.0,-100.00,SW,217,9.0,20.0,23,0.00,,,0.00,718.000000,,2013-03-22 19:43:00,
2013-03-22 13:52:00,42.0,7.0,-100.00,SW,217,9.0,20.0,23,0.00,,,0.00,718.000000,,2013-03-22 19:52:00,
2013-03-22 14:02:00,42.0,7.0,-100.00,SW,217,9.0,20.0,23,0.00,,,0.00,718.000000,,2013-03-22 20:02:00,
2013-03-22 14:43:00,44.0,7.0,-100.00,WSW,252,12.0,25.0,21,0.00,,,0.00,602.000000,,2013-03-22 20:43:00,
2013-03-22 14:52:00,44.0,7.0,-100.00,WSW,252,12.0,25.0,21,0.00,,,0.00,602.000000,,2013-03-22 20:52:00,
2013-03-22 15:02:00,44.0,7.0,-100.00,WSW,252,12.0,25.0,21,0.00,,,0.00,602.000000,,2013-03-22 21:02:00,
2013-03-22 15:11:00,44.0,7.0,-100.00,WSW,252,12.0,25.0,21,0.00,,,0.00,602.000000,,2013-03-22 21:11:00,
2013-03-22 15:12:00,43.0,6.0,-100.00,West,269,14.0,29.0,21,0.00,,,0.00,554.000000,,2013-03-22 21:12:00,
2013-03-22 15:33:00,43.0,6.0,-100.00,West,269,14.0,29.0,21,0.00,,,0.00,554.000000,,2013-03-22 21:33:00,
2013-03-22 15:43:00,43.0,6.0,-100.00,West,269,14.0,29.0,21,0.00,,,0.00,554.000000,,2013-03-22 21:43:00,
2013-03-22 15:53:00,43.0,6.0,-100.00,West,269,14.0,29.0,21,0.00,,,0.00,554.000000,,2013-03-22 21:53:00,
2013-03-22 16:02:00,43.0,6.0,-100.00,West,269,14.0,29.0,21,0.00,,,0.00,554.000000,,2013-03-22 22:02:00,
2013-03-22 16:12:00,44.0,1.0,-100.00,West,268,12.0,24.0,16,0.00,,,-99.99,501.000000,,2013-03-22 22:12:00,
2013-03-22 16:43:00,44.0,1.0,-100.00,West,268,12.0,24.0,16,0.00,,,-99.99,501.000000,,2013-03-22 22:43:00,
2013-03-22 16:53:00,44.0,1.0,-100.00,West,268,12.0,24.0,16,0.00,,,-99.99,501.000000,,2013-03-22 22:53:00,
2013-03-22 17:02:00,44.0,1.0,-100.00,West,268,12.0,24.0,16,0.00,,,-99.99,501.000000,,2013-03-22 23:02:00,
2013-03-22 17:12:00,45.0,-3.0,-100.00,WNW,283,14.0,27.0,13,0.00,,,0.00,422.000000,,2013-03-22 23:12:00,
2013-03-22 17:32:00,45.0,-3.0,-100.00,WNW,283,14.0,27.0,13,0.00,,,0.00,422.000000,,2013-03-22 23:32:00,
2013-03-22 17:42:00,45.0,-3.0,-100.00,WNW,283,14.0,27.0,13,0.00,,,0.00,422.000000,,2013-03-22 23:42:00,
2013-03-22 17:52:00,45.0,-3.0,-100.00,WNW,283,14.0,27.0,13,0.00,,,0.00,422.000000,,2013-03-22 23:52:00,
2013-03-22 18:02:00,45.0,-3.0,-100.00,WNW,283,14.0,27.0,13,0.00,,,0.00,422.000000,,2013-03-23 00:02:00,
2013-03-22 19:12:00,40.0,-3.0,-100.00,WNW,289,12.0,29.0,16,-99.99,,,0.00,58.000000,,2013-03-23 01:12:00,
2013-03-22 19:32:00,40.0,-3.0,-100.00,WNW,289,12.0,29.0,16,-99.99,,,0.00,58.000000,,2013-03-23 01:32:00,
2013-03-22 19:43:00,40.0,-3.0,-100.00,WNW,289,12.0,29.0,16,-99.99,,,0.00,58.000000,,2013-03-23 01:43:00,
2013-03-22 19:52:00,40.0,-3.0,-100.00,WNW,289,12.0,29.0,16,-99.99,,,0.00,58.000000,,2013-03-23 01:52:00,
2013-03-22 20:02:00,40.0,-3.0,-100.00,WNW,289,12.0,29.0,16,-99.99,,,0.00,58.000000,,2013-03-23 02:02:00,
2013-03-22 20:42:00,38.0,-7.0,-100.00,WNW,291,13.0,25.0,14,0.00,,,0.00,2.000000,,2013-03-23 02:42:00,
2013-03-22 20:52:00,38.0,-7.0,-100.00,WNW,291,13.0,25.0,14,0.00,,,0.00,2.000000,,2013-03-23 02:52:00,
2013-03-22 21:02:00,38.0,-7.0,-100.00,WNW,291,13.0,25.0,14,0.00,,,0.00,2.000000,,2013-03-23 03:02:00,
2013-03-22 21:11:00,38.0,-7.0,-100.00,WNW,291,13.0,25.0,14,0.00,,,0.00,2.000000,,2013-03-23 03:11:00,
2013-03-22 21:12:00,37.0,-8.0,-100.00,WNW,294,14.0,26.0,14,0.00,,,0.00,0.000000,,2013-03-23 03:12:00,
2013-03-22 21:43:00,37.0,-8.0,-100.00,WNW,294,14.0,26.0,14,0.00,,,0.00,0.000000,,2013-03-23 03:43:00,
2013-03-22 21:53:00,37.0,-8.0,-100.00,WNW,294,14.0,26.0,14,0.00,,,0.00,0.000000,,2013-03-23 03:53:00,
2013-03-22 22:02:00,37.0,-8.0,-100.00,WNW,294,14.0,26.0,14,0.00,,,0.00,0.000000,,2013-03-23 04:02:00,
2013-03-22 22:12:00,36.0,-9.0,-100.00,WNW,294,15.0,26.0,14,0.00,,,0.00,0.000000,,2013-03-23 04:12:00,
2013-03-22 22:33:00,36.0,-9.0,-100.00,WNW,294,15.0,26.0,14,0.00,,,0.00,0.000000,,2013-03-23 04:33:00,
2013-03-22 22:43:00,36.0,-9.0,-100.00,WNW,294,15.0,26.0,14,0.00,,,0.00,0.000000,,2013-03-23 04:43:00,
2013-03-22 22:53:00,36.0,-9.0,-100.00,WNW,294,15.0,26.0,14,0.00,,,0.00,0.000000,,2013-03-23 04:53:00,
2013-03-22 23:02:00,36.0,-9.0,-100.00,WNW,294,15.0,26.0,14,0.00,,,0.00,0.000000,,2013-03-23 05:02:00,
2013-03-22 23:12:00,34.0,-10.0,-100.00,WNW,294,12.0,21.0,14,0.00,,,0.00,0.000000,,2013-03-23 05:12:00,
2013-03-22 23:42:00,34.0,-10.0,-100.00,WNW,294,12.0,21.0,14,0.00,,,0.00,0.000000,,2013-03-23 05:42:00,
2013-03-22 23:52:00,34.0,-10.0,-100.00,WNW,294,12.0,21.0,14,0.00,,,0.00,0.000000,,2013-03-23 05:52:00,